Change the Weather History Date:

Monday, December 3, 2012

  Actual Average Record
Temperature  
Mean Temperature 63 °F -  
Max Temperature 77 °F 66 °F 78 °F (2013)
Min Temperature 49 °F 42 °F 48 °F (2014)
Degree Days  
Heating Degree Days 2    
Growing Degree Days 13 (Base 50)    
Moisture  
Dew Point 57 °F    
Average Humidity 84    
Maximum Humidity 100    
Minimum Humidity 48    
Precipitation  
Precipitation 0.00 in - - ()
Sea Level Pressure  
Sea Level Pressure 30.20 in    
Wind  
Wind Speed 3 mph ()    
Max Wind Speed 12 mph    
Max Gust Speed 20 mph    
Visibility 6.5 miles    
Events Fog , Thunderstorm    
Averages and records for this station are not official NWS values.
T = Trace of Precipitation, MM = Missing Value Source: Averaged Metar Reports

Daily Weather History Graph

Daily Weather History Graph

Search for Another Location

Airport or City:

Trip Planner

Search our weather history database for the weather conditions in past years. The results will help you decide how hot, cold, wet, or windy it might be!

Date:

Astronomy

Dec. 03, 2012 Rise Set
Actual Time 6:41 AM CST 4:57 PM CST
Civil Twilight 6:15 AM CST 5:23 PM CST
Nautical Twilight 5:45 AM CST 5:53 PM CST
Astronomical Twilight 5:16 AM CST 6:22 PM CST
Moon 9:33 PM CST (12/3) 10:13 AM CST (12/3)
Length of Visible Light 11h 08m
Length of Day
10h 15m
Waning Gibbous, 78% of the Moon is Illuminated
Dec 3
Waning Gibbous
Dec 6
Last Quarter
Dec 13
New
Dec 19
First Quarter
Dec 28
Full

Hourly Weather History & Observations

Time (CST) Temp. Dew Point Humidity Pressure Visibility Wind Dir Wind Speed Gust Speed Precip Events Conditions
12:15 AM 50.9 °F 50.9 °F 100% 30.23 in 7.0 mi Calm Calm - N/A   Scattered Clouds
12:35 AM 50.9 °F 50.9 °F 100% 30.22 in 1.0 mi Calm Calm - N/A   Overcast
12:55 AM 50.0 °F 50.0 °F 100% 30.22 in 1.8 mi Calm Calm - N/A   Overcast
1:15 AM 50.2 °F 50.2 °F 100% 30.22 in 1.0 mi Calm Calm - N/A   Overcast
1:35 AM 49.5 °F 49.5 °F 100% 30.22 in 0.5 mi Calm Calm - N/A Fog Fog
1:55 AM 49.5 °F 49.5 °F 100% 30.22 in 0.2 mi Calm Calm - N/A Fog Fog
2:15 AM 49.1 °F 49.1 °F 100% 30.22 in 0.5 mi Calm Calm - N/A Fog Fog
2:35 AM 49.1 °F 49.1 °F 100% 30.21 in 0.5 mi North 3.5 mph - N/A Fog Fog
2:55 AM 49.5 °F 49.5 °F 100% 30.22 in 0.2 mi Calm Calm - N/A Fog Fog
3:15 AM 49.5 °F 49.5 °F 100% 30.22 in 0.2 mi Calm Calm - N/A Fog Fog
3:35 AM 50.0 °F 50.0 °F 100% 30.22 in 0.2 mi Calm Calm - N/A Fog Fog
3:55 AM 50.9 °F 50.9 °F 100% 30.21 in 0.2 mi Calm Calm - N/A Fog Fog
4:15 AM 51.1 °F 51.1 °F 100% 30.21 in 0.2 mi Calm Calm - N/A Fog Fog
4:35 AM 51.8 °F 51.8 °F 100% 30.21 in 0.2 mi Calm Calm - N/A Fog Fog
4:55 AM 52.0 °F 52.0 °F 100% 30.21 in 0.2 mi Calm Calm - N/A Fog Fog
5:15 AM 52.0 °F 52.0 °F 100% 30.22 in 0.5 mi Calm Calm - N/A Fog Fog
5:35 AM 51.3 °F 51.3 °F 100% 30.22 in 0.5 mi Calm Calm - N/A Fog Fog
5:55 AM 50.9 °F 50.9 °F 100% 30.23 in 0.8 mi Calm Calm - N/A Thunderstorm Overcast
6:15 AM 50.5 °F 50.5 °F 100% 30.23 in 0.5 mi Calm Calm - N/A Fog Fog
6:35 AM 51.1 °F 51.1 °F 100% 30.23 in 0.8 mi Calm Calm - N/A   Overcast
6:55 AM 50.4 °F 50.4 °F 100% 30.24 in 0.2 mi Calm Calm - N/A Fog Fog
7:15 AM 51.4 °F 51.4 °F 100% 30.24 in 0.2 mi Calm Calm - N/A Fog Fog
7:35 AM 53.2 °F 53.2 °F 100% 30.24 in 0.2 mi Calm Calm - N/A Fog Fog
7:55 AM 54.7 °F 54.7 °F 100% 30.24 in 0.2 mi Calm Calm - N/A Fog Fog
8:15 AM 55.9 °F 55.9 °F 100% 30.25 in 0.2 mi Calm Calm - N/A Fog Fog
8:35 AM 57.9 °F 57.9 °F 100% 30.25 in 0.5 mi Calm Calm - N/A Fog Fog
9:15 AM 64.2 °F 64.2 °F 100% 30.25 in 10.0 mi SE 4.6 mph - N/A   Clear
9:35 AM 66.4 °F 66.4 °F 100% 30.25 in 10.0 mi SSE 8.1 mph - N/A   Clear
9:55 AM 70.9 °F 63.5 °F 77% 30.24 in 10.0 mi SSE 10.4 mph - N/A   Clear
10:15 AM 72.7 °F 60.4 °F 65% 30.24 in 10.0 mi SSE 9.2 mph 18.4 mph N/A   Unknown
10:35 AM 73.6 °F 58.8 °F 60% 30.24 in 10.0 mi South 10.4 mph - N/A   Unknown
10:55 AM 74.5 °F 58.5 °F 57% 30.23 in 10.0 mi South 11.5 mph 19.6 mph N/A   Unknown
11:15 AM 75.0 °F 58.1 °F 56% 30.22 in 10.0 mi South 11.5 mph 19.6 mph N/A   Scattered Clouds
11:35 AM 73.9 °F 58.1 °F 58% 30.22 in 10.0 mi SSE 8.1 mph - N/A   Clear
11:55 AM 75.2 °F 58.3 °F 56% 30.21 in 10.0 mi South 8.1 mph 16.1 mph N/A   Clear
12:15 PM 76.1 °F 58.1 °F 54% 30.19 in 10.0 mi South 9.2 mph - N/A   Unknown
12:35 PM 75.4 °F 57.0 °F 53% 30.19 in 10.0 mi SSE 9.2 mph 17.3 mph N/A   Unknown
12:55 PM 77.0 °F 56.1 °F 48% 30.18 in 10.0 mi SSE 10.4 mph 16.1 mph N/A   Unknown
1:15 PM 76.6 °F 55.6 °F 48% 30.17 in 10.0 mi SSE 11.5 mph 17.3 mph N/A   Unknown
1:35 PM 75.4 °F 55.9 °F 51% 30.17 in 10.0 mi South 10.4 mph - N/A   Unknown
1:55 PM 75.2 °F 55.6 °F 50% 30.16 in 10.0 mi SSE 10.4 mph - N/A   Unknown
2:15 PM 75.2 °F 55.4 °F 50% 30.16 in 10.0 mi SSE 10.4 mph - N/A   Unknown
2:35 PM 75.0 °F 55.4 °F 50% 30.16 in 10.0 mi South 9.2 mph - N/A   Overcast
2:55 PM 74.3 °F 55.4 °F 52% 30.16 in 10.0 mi South 11.5 mph - N/A   Overcast
3:15 PM 73.9 °F 56.3 °F 54% 30.17 in 10.0 mi SSE 9.2 mph - N/A   Mostly Cloudy
3:35 PM 73.4 °F 56.8 °F 56% 30.17 in 10.0 mi SSE 9.2 mph - N/A   Overcast
3:55 PM 73.2 °F 56.3 °F 55% 30.17 in 10.0 mi SSE 6.9 mph - N/A   Overcast
4:15 PM 72.5 °F 56.7 °F 57% 30.17 in 10.0 mi SSE 8.1 mph - N/A   Scattered Clouds
4:35 PM 71.6 °F 57.4 °F 61% 30.18 in 10.0 mi SSE 5.8 mph - N/A   Scattered Clouds
4:55 PM 70.5 °F 58.1 °F 65% 30.18 in 10.0 mi SSE 6.9 mph - N/A   Scattered Clouds
5:15 PM 70.0 °F 59.0 °F 68% 30.18 in 10.0 mi SSE 5.8 mph - N/A   Mostly Cloudy
5:35 PM 68.9 °F 59.9 °F 73% 30.18 in 10.0 mi SSE 4.6 mph - N/A   Mostly Cloudy
5:55 PM 68.9 °F 61.0 °F 76% 30.18 in 10.0 mi SSE 6.9 mph - N/A   Mostly Cloudy
6:15 PM 68.0 °F 61.5 °F 80% 30.18 in 10.0 mi SSE 4.6 mph - N/A   Scattered Clouds
6:35 PM 67.5 °F 62.2 °F 83% 30.19 in 10.0 mi SSE 6.9 mph - N/A   Clear
6:55 PM 67.3 °F 66.2 °F 96% 30.19 in 10.0 mi SSE 5.8 mph - N/A   Scattered Clouds
7:15 PM 67.1 °F 67.1 °F 100% 30.19 in 10.0 mi SSE 6.9 mph - N/A   Unknown
7:35 PM 66.4 °F 66.4 °F 100% 30.19 in 10.0 mi SSE 6.9 mph - N/A   Unknown
7:55 PM 66.6 °F 66.6 °F 100% 30.19 in 10.0 mi SSE 8.1 mph - N/A   Unknown
8:15 PM 66.2 °F 66.2 °F 100% 30.19 in 10.0 mi South 6.9 mph - N/A   Unknown
8:35 PM 65.5 °F 65.5 °F 100% 30.19 in 10.0 mi South 6.9 mph - N/A   Clear
8:55 PM 65.8 °F 65.8 °F 100% 30.19 in 10.0 mi SSE 5.8 mph - N/A   Mostly Cloudy
9:15 PM 66.0 °F 66.0 °F 100% 30.20 in 10.0 mi South 6.9 mph - N/A   Scattered Clouds
9:35 PM 65.5 °F 65.5 °F 100% 30.19 in 10.0 mi SSE 5.8 mph - N/A   Clear
9:55 PM 65.5 °F 65.5 °F 100% 30.19 in 10.0 mi South 4.6 mph - N/A   Clear
10:15 PM 65.3 °F 65.3 °F 100% 30.20 in 10.0 mi South 3.5 mph - N/A   Clear
10:35 PM 64.8 °F 64.8 °F 100% 30.20 in 10.0 mi SSE 4.6 mph - N/A   Clear
10:55 PM 64.8 °F 64.8 °F 100% 30.20 in 10.0 mi Calm Calm - N/A   Scattered Clouds
11:15 PM 64.6 °F 64.6 °F 100% 30.20 in 10.0 mi Calm Calm - N/A   Scattered Clouds
11:35 PM 63.9 °F 63.9 °F 100% 30.19 in 7.0 mi Calm Calm - N/A   Scattered Clouds